• Join FlightAware (Why Join?)
  • Login
  • US Flag 
10:48PM EDT


 

Airport Tracker/Info


-or-


 

Live Flight TrackerFlight Track Log ✈ GTI4241 ✈ 20-Nov-2013 ✈ KJFK - KAAO

Flight Track Log - Related Links

Times and Time Zones

All times are in EST time to prevent confusion due to time zone crossing. See the GTI4241 flight status page for this flight to view local times or setup timezone preferences in your user account.

Time Position Orientation Groundspeed Altitude Reporting Facility
EST Latitude Longitude Course Direction KTS MPH feet Rate Location/Type
07:26PM 40.6500 -73.8500 223° Southwest 181 208 1,500  Level New York TRACON
07:32PM 40.3259 -74.2523 237° Southwest 357 411 13,600 2,100 Climbing FlightAware ADS-B (KWWD)
07:32PM 40.2960 -74.3101 236° Southwest 356 410 15,300 2,100 Climbing FlightAware ADS-B (KWWD)
07:33PM 40.2518 -74.3969 236° Southwest 366 421 16,400 840 Climbing FlightAware ADS-B (KWWD)
07:33PM 40.2221 -74.4565 237° Southwest 364 419 16,400 420 Level FlightAware ADS-B (KWWD)
07:34PM 40.2073 -74.4944 243° Southwest 368 423 16,800 1,740 Climbing FlightAware ADS-B (KWWD)
07:34PM 40.2006 -74.5403 259° West 372 428 17,600 2,400 Climbing FlightAware ADS-B (KWWD)
07:35PM 40.1924 -74.6281 263° West 378 435 19,200 2,400 Climbing FlightAware ADS-B (KWWD)
07:35PM 40.1857 -74.6991 263° West 385 443 20,400 2,160 Climbing FlightAware ADS-B (KWWD)
07:36PM 40.1788 -74.7855 264° West 390 449 21,700 1,320 Climbing FlightAware ADS-B (KWWD)
07:36PM 40.1730 -74.8630 264° West 390 449 22,000 240 Climbing FlightAware ADS-B (KWWD)
07:37PM 40.1677 -74.9307 264° West 387 445 22,000 360 Level FlightAware ADS-B (KWWD)
07:38PM 40.1561 -75.0754 264° West 391 450 22,600 600 Climbing FlightAware ADS-B
07:38PM 40.1533 -75.1085 264° West 396 456 22,800 1,020 Climbing FlightAware ADS-B (KWWD)
07:38PM 40.1573 -75.0613 84° East 390 449 23,000 1,200 Climbing FlightAware ADS-B (KOQN)
07:39PM 40.1446 -75.2140 264° West 403 464 23,700 780 Climbing FlightAware ADS-B (KWWD)
07:40PM 40.1367 -75.3086 264° West 404 465 24,000 960 Climbing FlightAware ADS-B (KWWD)
07:40PM 40.1290 -75.3964 264° West 409 471 25,000 900 Climbing FlightAware ADS-B (KOQN)
07:41PM 40.1232 -75.4652 264° West 409 471 25,000 780 Level FlightAware ADS-B (KWWD)
07:42PM 40.1032 -75.6943 264° West 417 480 26,600 1,260 Climbing FlightAware ADS-B (KWWD)
07:43PM 40.0933 -75.8074 263° West 421 484 28,000 1,860 Climbing FlightAware ADS-B (KAPG)
07:43PM 40.0925 -75.8148 263° West 421 484 28,000 1,320 Level FlightAware ADS-B (KWWD)
07:44PM 40.0863 -75.8856 263° West 425 489 28,800 1,260 Climbing FlightAware ADS-B
07:44PM 40.0780 -75.9776 263° West 429 494 29,400 1,200 Climbing FlightAware ADS-B (KWWD)
07:45PM 40.0704 -76.0627 263° West 432 497 30,100 1,320 Climbing FlightAware ADS-B (KWWD)
07:45PM 40.0618 -76.1772 264° West 436 502 31,100 1,260 Climbing FlightAware ADS-B (KAPG)
07:46PM 40.0604 -76.2297 268° West 438 504 31,600 1,080 Climbing FlightAware ADS-B (KAPG)
07:46PM 40.0604 -76.3198 270° West 440 506 32,100 900 Climbing FlightAware ADS-B (KWWD)
07:47PM 40.0613 -76.4023 271° West 444 511 32,500 780 Climbing FlightAware ADS-B (KWWD)
07:47PM 40.0615 -76.4184 271° West 444 511 32,600 1,320 Climbing FlightAware ADS-B (KWWD)
07:47PM 40.0623 -76.4720 271° West 441 507 33,100 1,560 Climbing FlightAware ADS-B (KWWD)
07:48PM 40.0634 -76.5588 271° West 434 499 34,000 1,500 Climbing FlightAware ADS-B (KWWD)
07:48PM 40.0642 -76.6371 271° West 431 496 34,700 1,260 Climbing FlightAware ADS-B (KWWD)
07:49PM 40.0648 -76.7118 271° West 425 489 35,500 960 Climbing FlightAware ADS-B (KAPG)
07:50PM 40.0655 -76.8394 270° West 423 487 36,000 360 Climbing FlightAware ADS-B (KAPG)
07:50PM 40.0661 -76.9486 270° West 421 484 36,000  Level FlightAware ADS-B (KAPG)
07:52PM 40.0667 -77.1763 270° West 419 482 36,000  Level FlightAware ADS-B (KAPG)
07:53PM 40.0669 -77.3302 270° West 419 482 36,000  Level FlightAware ADS-B (KWWD)
07:55PM 40.0667 -77.6982 270° West 423 487 36,000  Level FlightAware ADS-B (KWWD)
07:56PM 40.0661 -77.8791 270° West 423 487 36,000  Level FlightAware ADS-B (KWWD)
07:58PM 40.0650 -78.0569 270° West 422 486 36,000  Level Cleveland Center
07:59PM 40.0631 -78.2108 269° West 424 488 36,000  Level Cleveland Center
08:00PM 40.0633 -78.3617 270° West 419 482 36,000  Level Cleveland Center
08:01PM 40.0625 -78.5161 270° West 426 490 36,000  Level Cleveland Center
08:02PM 40.0597 -78.7000 269° West 426 490 36,000  Level Cleveland Center
08:03PM 40.0586 -78.8525 270° West 424 488 36,000  Level Cleveland Center
08:04PM 40.0575 -79.0092 270° West 433 498 36,000  Level Cleveland Center
08:05PM 40.0553 -79.1642 269° West 430 495 36,000  Level Cleveland Center
08:06PM 40.0522 -79.3128 269° West 425 489 36,000  Level Cleveland Center
08:07PM 40.0489 -79.4692 268° West 431 496 36,000  Level Cleveland Center
08:08PM 40.0461 -79.6547 269° West 429 494 36,000  Level Cleveland Center
08:09PM 40.0417 -79.8122 268° West 432 497 36,000  Level Cleveland Center
08:10PM 40.0381 -79.9675 268° West 429 494 36,000  Level Cleveland Center
08:11PM 40.0356 -80.1242 269° West 429 494 36,000  Level Cleveland Center
08:12PM 40.0317 -80.2772 268° West 422 486 36,000  Level Cleveland Center
08:13PM 40.0281 -80.4328 268° West 426 490 36,000  Level Cleveland Center
08:14PM 40.0250 -80.5881 269° West 426 490 36,000  Level Cleveland Center
08:15PM 40.0197 -80.7733 268° West 425 489 36,000  Level Cleveland Center
08:16PM 40.0158 -80.9281 268° West 426 490 36,000  Level Cleveland Center
08:17PM 40.0136 -81.0172 268° West 426 490 36,000  Level Indianapolis Center
08:18PM 40.0125 -81.1700 270° West 419 482 36,000  Level Indianapolis Center
08:19PM 40.0092 -81.3478 269° West 416 479 36,000  Level Indianapolis Center
08:20PM 40.0056 -81.4994 268° West 414 476 36,000  Level Indianapolis Center
08:21PM 40.0031 -81.6514 269° West 414 476 36,000  Level Indianapolis Center
08:22PM 39.9994 -81.7897 268° West 416 479 36,000  Level Indianapolis Center
08:23PM 39.9967 -81.9414 269° West 420 483 36,000  Level Indianapolis Center
08:24PM 39.9922 -82.1242 268° West 422 486 36,000  Level Indianapolis Center
08:25PM 39.9883 -82.2775 268° West 424 488 36,000  Level Indianapolis Center
08:26PM 39.9847 -82.4308 268° West 425 489 36,000  Level Indianapolis Center
08:27PM 39.9803 -82.5822 268° West 421 484 36,000  Level Indianapolis Center
08:28PM 39.9758 -82.7364 268° West 425 489 36,000  Level Indianapolis Center
08:29PM 39.9717 -82.8883 268° West 422 486 36,000  Level Indianapolis Center
08:30PM 39.9661 -83.0400 267° West 420 483 36,000  Level Indianapolis Center
08:31PM 39.9628 -83.2164 269° West 412 474 36,000  Level Indianapolis Center
08:32PM 39.9581 -83.3619 268° West 410 472 36,000  Level Indianapolis Center
08:33PM 39.9531 -83.5061 267° West 410 472 36,000  Level Indianapolis Center
08:34PM 39.9469 -83.6500 267° West 408 470 36,000  Level Indianapolis Center
08:36PM 39.9403 -83.8239 267° West 406 467 36,000  Level Indianapolis Center
08:37PM 39.9339 -83.9692 267° West 404 465 36,000  Level Indianapolis Center
08:38PM 39.9286 -84.1153 267° West 406 467 36,000  Level Indianapolis Center
08:39PM 39.9225 -84.2600 267° West 402 463 36,000  Level Indianapolis Center
08:40PM 39.9156 -84.4033 266° West 400 460 36,000  Level Indianapolis Center
08:41PM 39.9094 -84.5469 267° West 399 459 36,000  Level Indianapolis Center
08:42PM 39.9033 -84.6917 267° West 400 460 36,000  Level Indianapolis Center
08:43PM 39.8950 -84.8658 266° West 402 463 36,000  Level Indianapolis Center
08:44PM 39.8897 -84.9861 267° West 400 460 36,000  Level Indianapolis Center
08:45PM 39.8808 -85.1572 266° West 397 457 36,000  Level Indianapolis Center
08:46PM 39.8744 -85.2992 267° West 396 456 36,000  Level Indianapolis Center
08:47PM 39.8656 -85.4403 265° West 395 455 36,000  Level Indianapolis Center
08:48PM 39.8503 -85.5800 262° West 393 452 36,000  Level Indianapolis Center
08:49PM 39.8336 -85.7194 261° West 393 452 36,000  Level Indianapolis Center
08:50PM 39.8169 -85.8567 261° West 389 448 36,000  Level Indianapolis Center
08:51PM 39.8003 -85.9961 261° West 391 450 36,000  Level Indianapolis Center
08:52PM 39.7817 -86.1603 262° West 386 444 36,000  Level Indianapolis Center
08:53PM 39.7647 -86.3006 261° West 386 444 36,000  Level Indianapolis Center
08:54PM 39.7475 -86.4397 261° West 389 448 36,000  Level Indianapolis Center
08:55PM 39.7322 -86.5642 261° West 393 452 36,000  Level Indianapolis Center
08:56PM 39.7117 -86.7311 261° West 393 452 36,000  Level Indianapolis Center
08:57PM 39.6936 -86.8703 260° West 392 451 36,000  Level Indianapolis Center
08:58PM 39.6758 -87.0097 261° West 394 453 36,000  Level Indianapolis Center
09:00PM 39.6364 -87.3073 261° West 394 453 36,000  Level FlightAware ADS-B
09:01PM 39.6269 -87.3714 261° West 398 458 36,000  Level Kansas City Center
09:02PM 39.6050 -87.5400 260° West 396 456 36,000  Level Kansas City Center
09:03PM 39.5861 -87.6819 260° West 398 458 36,000  Level Kansas City Center
09:08PM 39.4876 -88.3899 260° West 381 438 36,000  Level FlightAware ADS-B
09:10PM 39.4548 -88.6179 260° West 384 442 36,000  Level FlightAware ADS-B
09:10PM 39.4391 -88.7263 259° West 383 441 36,000  Level FlightAware ADS-B
09:11PM 39.4227 -88.8386 259° West 383 441 36,000  Level FlightAware ADS-B
09:12PM 39.4127 -88.9061 259° West 383 441 36,000  Level FlightAware ADS-B
09:12PM 39.3987 -89.0005 259° West 382 440 36,000  Level FlightAware ADS-B
09:14PM 39.3662 -89.2190 259° West 380 437 36,000  Level FlightAware ADS-B
09:15PM 39.3559 -89.2882 259° West 381 438 36,000  Level FlightAware ADS-B
09:15PM 39.3471 -89.3438 259° West 381 438 36,000  Level FlightAware ADS-B
09:16PM 39.3318 -89.4465 259° West 382 440 36,000  Level FlightAware ADS-B
09:17PM 39.3087 -89.5967 259° West 384 442 36,000  Level FlightAware ADS-B
09:18PM 39.2944 -89.6890 259° West 385 443 36,000  Level FlightAware ADS-B
09:19PM 39.2578 -89.9250 259° West 392 451 36,000  Level FlightAware ADS-B
09:20PM 39.2414 -90.0350 259° West 389 448 36,000  Level Kansas City Center
09:21PM 39.2192 -90.1711 258° West 391 450 36,000  Level Kansas City Center
09:25PM 39.1412 -90.6524 258° West 383 441 36,000  Level FlightAware ADS-B
09:26PM 39.1061 -90.8700 258° West 383 441 36,000  Level Kansas City Center
09:27PM 39.0850 -90.9994 258° West 376 433 36,000  Level Kansas City Center
09:28PM 39.0633 -91.1283 258° West 373 429 36,000  Level Kansas City Center
09:29PM 39.0425 -91.2561 258° West 369 425 36,000  Level Kansas City Center
09:30PM 39.0203 -91.3844 257° West 369 425 36,000  Level Kansas City Center
09:31PM 38.9992 -91.5128 258° West 370 426 36,000  Level Kansas City Center
09:32PM 38.9764 -91.6419 257° West 371 427 36,000  Level Kansas City Center
09:34PM 38.9528 -91.7819 258° West 374 430 36,000  Level Kansas City Center
09:35PM 38.9292 -91.9119 257° West 374 430 36,000  Level Kansas City Center
09:36PM 38.9014 -92.0678 257° West 374 430 36,000  Level Kansas City Center
09:37PM 38.8783 -92.1989 257° West 375 432 36,000  Level Kansas City Center
09:38PM 38.8544 -92.3300 257° West 377 434 36,000  Level Kansas City Center
09:39PM 38.8306 -92.4594 257° West 376 433 36,000  Level Kansas City Center
09:41PM 38.7819 -92.7236 257° West 381 438 36,000  Level Kansas City Center
09:42PM 38.7583 -92.8561 257° West 382 440 36,000  Level Kansas City Center
09:43PM 38.7333 -92.9869 256° West 380 437 36,000  Level Kansas City Center
09:44PM 38.7092 -93.1192 257° West 382 440 36,000  Level Kansas City Center
09:45PM 38.6792 -93.2797 257° West 385 443 36,000  Level Kansas City Center
09:46PM 38.6528 -93.4125 256° West 385 443 36,000  Level Kansas City Center
09:47PM 38.6286 -93.5450 257° West 384 442 36,000  Level Kansas City Center
09:48PM 38.6033 -93.6772 256° West 383 441 36,000  Level Kansas City Center
09:49PM 38.5758 -93.8139 256° West 382 440 36,000  Level Kansas City Center
09:50PM 38.5531 -93.9403 257° West 382 440 36,000  Level Kansas City Center
09:51PM 38.5247 -94.0853 256° West 380 437 36,000  Level Kansas City Center
09:52PM 38.4992 -94.2125 256° West 384 442 36,000  Level Kansas City Center
09:53PM 38.4744 -94.3414 256° West 385 443 36,000  Level Kansas City Center
09:54PM 38.4450 -94.4886 256° West 388 447 36,000  Level Kansas City Center
09:55PM 38.4194 -94.6164 256° West 388 447 36,000  Level Kansas City Center
09:56PM 38.3931 -94.7447 255° West 389 448 36,000  Level Kansas City Center
09:57PM 38.3625 -94.8953 256° West 391 450 36,000  Level Kansas City Center
09:58PM 38.3364 -95.0239 256° West 391 450 36,000  Level Kansas City Center
09:59PM 38.3044 -95.1764 255° West 395 455 36,000 -420 Level Kansas City Center
10:00PM 38.2781 -95.3058 255° West 396 456 35,200 -840 Descending Kansas City Center
10:01PM 38.2506 -95.4356 255° West 395 455 34,300 -2,220 Descending Kansas City Center
10:02PM 38.2189 -95.5864 255° West 395 455 30,700 -3,180 Descending Kansas City Center
10:03PM 38.1917 -95.7183 255° West 399 459 27,900 -2,580 Descending Kansas City Center
10:04PM 38.1642 -95.8483 255° West 399 459 25,500 -2,460 Descending Kansas City Center
10:05PM 38.1325 -95.9936 255° West 387 445 22,900 -3,240 Descending Kansas City Center
10:06PM 38.1031 -96.1300 255° West 383 441 18,900 -3,480 Descending Kansas City Center
10:07PM 38.0750 -96.2508 254° West 397 457 16,300 -2,580 Descending Kansas City Center
10:07PM 38.0775 -96.2506 North 402 463 16,300 -2,160 Level Kansas City Center
10:08PM 38.0403 -96.4164 254° West 372 428 13,500 -1,980 Descending Kansas City Center
10:09PM 38.0178 -96.5206 255° West 355 409 12,300 -1,260 Descending Kansas City Center
10:10PM 38.0119 -96.5489 255° West 326 375 12,100 -1,500 Descending Kansas City Center
10:10PM 37.9944 -96.6247 254° West 313 360 10,800 -1,500 Descending Kansas City Center
10:11PM 37.9889 -96.6511 255° West 294 338 10,600 -840 Descending Kansas City Center
10:11PM 37.9739 -96.7189 254° West 285 328 10,000 -840 Descending Kansas City Center
10:12PM 37.9689 -96.7422 255° West 271 312 9,800 -1,440 Descending Kansas City Center
10:13PM 37.9506 -96.8275 255° West 249 287 8,300 -1,620 Descending Kansas City Center
10:13PM 37.9356 -96.8925 254° West 254 292 6,900 -1,920 Descending Kansas City Center
10:14PM 37.9300 -96.9158 253° West 254 292 6,400 -1,500 Descending Kansas City Center
10:15PM 37.9117 -97.0036 255° West 261 300 5,100 -1,200 Descending Kansas City Center
10:15PM 37.8989 -97.0575 253° West 227 261 4,200 -1,140 Descending Kansas City Center
10:16PM 37.8942 -97.0808 256° West 203 234 4,000 -480 Descending Kansas City Center
10:18PM 37.7624 -97.2219 191° South  Level FlightAware Approximate
10:20PM 37.7797 -97.2150 218° Southwest 165 190 2,300  Level Kansas City Center
10:20PM 37.7794 -97.2156 238° Southwest 153 176 2,300  Level Kansas City Center
10:22PM 37.6167 -97.2667 218° Southwest  Level FlightAware Approximate
10:25PM 37.6167 -97.2667 218° Southwest  Level FlightAware Approximate
10:29PM 37.6231 -97.2676 218° Southwest  Level Estimated
10:30PM 37.6167 -97.2667 218° Southwest  Level FlightAware Approximate
10:31PM 37.6231 -97.2676 218° Southwest  Level Estimated
10:32PM 37.6167 -97.2667 218° Southwest  Level FlightAware Approximate
10:33PM 37.6231 -97.2676 218° Southwest  Level Estimated
10:34PM 37.6167 -97.2667 218° Southwest  Level FlightAware Approximate
10:35PM 37.6231 -97.2676 218° Southwest  Level Estimated
10:36PM 37.6167 -97.2667 218° Southwest  Level FlightAware Approximate